Powrót do katalogu

STARLINK-37448

AktywnyŁącznośćVLEO
NORAD 100041·PAYLOAD·🇺🇸 United States

Wystrzelony Jul 14, 2026 z Cape Canaveral Space Force Station

Loading…

Następne Przeloty (najbliższe 24 godziny)

TLE

Starzejące sięSource: Space-Track

Epoka: Sep 13, 2026, 15:59 UTC

1 A0041U 26161P   26256.66630828  .00018828  00000-0  56671-3 0  9996
2 A0041  53.1598  29.4920 0000980  76.2912 283.8200 15.34414937  9562

Śledź STARLINK-37448 w czasie rzeczywistym z AllMySat

Download on the App Store